Location: Chuathbaluk
(61.5726°N, 159.2454°W)
Time: 14:32:45
(UTC+00:00)

NOAA 15 - Pass Details

Date: 24 January 2021
Orbit: 798 x 812 km, 98.7° (Epoch: 01 March)

Event Time Altitude Azimuth Distance (km) Brightness Sun altitude
Rises 18:09:37 0° 19° (NNE) 3,344 7.7 -7.6°
Reaches altitude 10° 18:12:02 10° 25° (NNE) 2,410 7.1 -7.3°
Maximum altitude 18:17:13 50° 100° (E) 1,033 5.7 -6.8°
Drops below altitude 10° 18:22:23 10° 176° (S) 2,400 7.6 -6.2°
Sets 18:24:47 0° 182° (S) 3,328 8.2 -6.0°
